UFO 11 (USA 174)

Last updated on Oct. 1, 2020, 5:42 a.m. UTC

1 28117U 03057A   20274.88521619 -.00000111  00000-0  00000+0 0  9992
2 28117   6.1746  37.5326 0000397  64.9982 301.6606  1.00276014 61514
UTC
Height (km)
Latitude
Longitude
Inclination
Orbital Period
UTC large
Height (km)
Speed (km/s)
/
Latitude / Longitude
Inclination (degrees)
Orbital Period (minutes)
Azimuth
Elevation
Range (km)
Doppler Factor
iOS Compass Heading
iOS Angle

Next 30 passes for location: Hong Kong

Rise time Rise Azimuth (degrees) Set time Set Azimuth (degrees) Duration Max altitude (degrees)

No matching passes for this satellites